Location: Bannatyne
(13.0833°N, 59.5333°W)
Time: 16:34:17
(UTC+00:00)

Vanguard 2 Rocket - Visible Passes

Search period start: 27 January 2021 00:00
Search period end: 06 February 2021 00:00
Orbit: 554 x 3325 km, 32.9° (Epoch: 26 January)

Date Brightness Start Highest point End Pass type
(mag) Time Alt. Az. Time Alt. Az. Time Alt. Az.
27 Jan 9.3 00:43:02 10° NW 00:43:10 11° NW 00:43:10 11° NW visible
27 Jan 7.8 23:42:40 10° NW 23:47:14 29° N 23:47:14 29° N visible
28 Jan 8.0 22:41:40 10° NW 22:48:17 26° NNE 22:51:20 17° NE visible
29 Jan 9.4 00:56:59 10° WNW 00:57:11 11° WNW 00:57:11 11° WNW visible
29 Jan 7.4 23:56:19 10° NW 00:01:20 44° NNW 00:01:20 44° NNW visible
30 Jan 7.5 22:55:17 10° NW 23:03:01 41° NNE 23:05:32 26° ENE visible
01 Feb 7.4 00:10:21 10° WNW 00:15:37 48° W 00:15:37 48° W visible
01 Feb 6.8 23:09:03 10° NW 23:17:24 72° NNE 23:19:55 33° ESE visible
02 Feb 7.8 22:07:23 10° NW 22:17:21 50° NNE 22:23:05 10° E visible
03 Feb 8.2 00:24:59 10° WNW 00:30:07 29° SW 00:30:07 29° SW visible
03 Feb 10.9 09:37:59 10° SSE 09:42:17 12° SE 09:47:05 10° ESE visible
03 Feb 7.3 23:23:07 10° WNW 23:31:23 62° SW 23:34:29 25° SE visible
04 Feb 7.4 22:21:12 10° WNW 22:31:42 81° NNE 22:37:30 10° ESE visible
05 Feb 9.1 00:40:58 10° WSW 00:44:06 14° SW 00:44:46 14° SW visible
05 Feb 10.6 09:47:21 10° S 09:56:13 20° SE 10:07:40 10° E visible
05 Feb 8.6 23:37:48 10° WNW 23:44:58 32° SW 23:49:12 12° SSE visible
